TimeMDT,TemperatureF,Dew PointF,Humidity,Sea Level PressureIn,VisibilityMPH,Wind Direction,Wind SpeedMPH,Gust SpeedMPH,PrecipitationIn,Events,Conditions,WindDirDegrees,DateUTC
12:51 AM,53.1,41.0,64,29.77,10.0,Calm,Calm,-,N/A,,Clear,0,2013-09-21 06:51:00
1:51 AM,46.0,39.9,79,29.79,10.0,ENE,3.5,-,N/A,,Clear,60,2013-09-21 07:51:00
2:51 AM,45.0,39.9,82,29.78,10.0,Calm,Calm,-,N/A,,Clear,0,2013-09-21 08:51:00
3:51 AM,44.1,39.0,82,29.78,10.0,Calm,Calm,-,N/A,,Clear,0,2013-09-21 09:51:00
4:51 AM,44.1,39.0,82,29.78,10.0,Variable,3.5,-,N/A,,Clear,0,2013-09-21 10:51:00
5:51 AM,48.0,39.0,71,29.77,10.0,Calm,Calm,-,N/A,,Clear,0,2013-09-21 11:51:00
6:51 AM,43.0,37.0,80,29.79,10.0,Calm,Calm,-,N/A,,Clear,0,2013-09-21 12:51:00
7:51 AM,41.0,37.0,86,29.81,10.0,Calm,Calm,-,N/A,,Clear,0,2013-09-21 13:51:00
8:51 AM,54.0,43.0,66,29.78,10.0,Calm,Calm,-,N/A,,Clear,0,2013-09-21 14:51:00
9:51 AM,60.1,42.1,51,29.79,10.0,Calm,Calm,-,N/A,,Clear,0,2013-09-21 15:51:00
10:51 AM,68.0,39.0,35,29.76,10.0,Calm,Calm,-,N/A,,Clear,0,2013-09-21 16:51:00
11:51 AM,77.0,39.9,26,29.72,10.0,Calm,Calm,-,N/A,,Clear,0,2013-09-21 17:51:00
12:51 PM,81.0,32.0,17,29.68,10.0,SSW,23.0,31.1,N/A,,Clear,210,2013-09-21 18:51:00
1:51 PM,82.0,28.9,14,29.67,10.0,SSW,17.3,27.6,N/A,,Clear,200,2013-09-21 19:51:00
2:51 PM,82.9,30.0,15,29.63,10.0,South,18.4,25.3,N/A,,Clear,190,2013-09-21 20:51:00
3:51 PM,82.9,28.9,14,29.59,10.0,SSW,19.6,27.6,N/A,,Clear,210,2013-09-21 21:51:00
4:51 PM,82.0,28.9,14,29.57,10.0,SSW,13.8,24.2,N/A,,Clear,210,2013-09-21 22:51:00
5:51 PM,82.0,28.0,14,29.53,10.0,South,13.8,-,N/A,,Clear,190,2013-09-21 23:51:00
6:51 PM,77.0,33.1,20,29.52,10.0,SSW,6.9,-,N/A,,Clear,200,2013-09-22 00:51:00
7:51 PM,73.0,35.1,25,29.52,10.0,SE,3.5,-,N/A,,Clear,130,2013-09-22 01:51:00
8:51 PM,71.1,36.0,28,29.50,10.0,SSE,3.5,-,N/A,,Partly Cloudy,150,2013-09-22 02:51:00
9:51 PM,70.0,36.0,29,29.49,10.0,ESE,3.5,-,N/A,,Mostly Cloudy,120,2013-09-22 03:51:00
10:51 PM,70.0,35.1,28,29.47,10.0,SE,6.9,-,N/A,,Partly Cloudy,130,2013-09-22 04:51:00
11:51 PM,72.0,36.0,27,29.44,10.0,South,10.4,-,N/A,,Partly Cloudy,170,2013-09-22 05:51:00